Location: Belfast
(54.5830°N, 5.9330°W)
Time: 07:47:59
(UTC+00:00)

ISS - Pass Details

Date: 15 November 2017
Orbit: 402 x 407 km, 51.6° (Epoch: 21 November)

Event Time Altitude Azimuth Distance (km) Brightness Sun altitude
Exits shadow 05:28:01 18° 177° (S) 1,079 -1.6 -20.8°
Drops below altitude 10° 05:29:23 10° 156° (SSE) 1,452 -0.7 -20.6°
Sets 05:31:45 0° 140° (SE) 2,308 0.7 -20.3°
